Liberal, KS

10:10 PM CDT on September 22, 2019 (GMT -0500)
Liberal Municipal

Weather History for KLBL - August, 2019

Change the Weather History Date:

Sunday, August 18, 2019

  Actual Average Record
Temperature  
Mean Temperature 82 °F -  
Max Temperature 95 °F 93 °F 105 °F (1945)
Min Temperature 70 °F 65 °F 57 °F (1942)
Cooling Degree Days 18    
Growing Degree Days 32 (Base 50)    
Moisture  
Dew Point 64 °F    
Average Humidity 55    
Maximum Humidity 76    
Minimum Humidity 34    
Precipitation  
Precipitation 0.00 in - - ()
Sea Level Pressure  
Sea Level Pressure 29.80 in    
Wind  
Wind Speed 13 mph (ESE)    
Max Wind Speed 18 mph    
Max Gust Speed 24 mph    
Visibility 9 miles    
Events      
Averages and records for this station are not official NWS values.
T = Trace of Precipitation, MM = Missing Value Source: NWS Daily Summary

Daily Weather History Graph

Daily Weather History Graph

Search for Another Location

Airport or City:

Astronomy

Aug. 18, 2019 Rise Set
Actual Time 7:02 AM CDT 8:31 PM CDT
Civil Twilight 6:35 AM CDT 8:59 PM CDT
Nautical Twilight 6:02 AM CDT 9:32 PM CDT
Astronomical Twilight 5:27 AM CDT 10:06 PM CDT
Moon 10:31 PM CDT (8/18) 9:46 AM CDT (8/18)
Length of Visible Light 14h 23m
Length of Day
13h 28m
Waning Gibbous, 91% of the Moon is Illuminated
Aug 18
Waning Gibbous
Aug 23
Last Quarter
Aug 30
New
Sep 5
First Quarter
Sep 13
Full

Hourly Weather History & Observations

Time (CDT) Temp. Heat Index Dew Point Humidity Pressure Visibility Wind Dir Wind Speed Gust Speed Precip Events Conditions
12:39 AM 78.8 °F - 59.0 °F 51% 29.77 in 2.0 mi South 17.3 mph 24.2 mph N/A   Haze
12:49 AM 77.0 °F - 59.0 °F 54% 29.77 in 10.0 mi South 17.3 mph - N/A   Clear
12:56 AM 75.9 °F - 59.0 °F 56% 29.65 in 10.0 mi South 18.4 mph - N/A   Clear
1:56 AM 75.9 °F - 60.1 °F 58% 29.66 in 10.0 mi South 18.4 mph - N/A   Clear
2:56 AM 73.9 °F - 61.0 °F 64% 29.68 in 10.0 mi SSW 15.0 mph - N/A   Clear
3:56 AM 73.9 °F - 62.1 °F 66% 29.69 in 10.0 mi South 16.1 mph 24.2 mph N/A   Clear
4:56 AM 73.0 °F - 63.0 °F 71% 29.74 in 10.0 mi Calm Calm - N/A   Clear
5:56 AM 73.0 °F - 63.0 °F 71% 29.77 in 10.0 mi ENE 11.5 mph - N/A   Clear
6:56 AM 71.1 °F - 61.0 °F 70% 29.77 in 10.0 mi East 12.7 mph - N/A   Clear
7:56 AM 70.0 °F - 62.1 °F 76% 29.78 in 10.0 mi East 12.7 mph - N/A   Clear
8:56 AM 73.9 °F - 63.0 °F 68% 29.79 in 10.0 mi ESE 13.8 mph - N/A   Clear
9:56 AM 79.0 °F - 64.0 °F 60% 29.82 in 10.0 mi ESE 10.4 mph - N/A   Clear
10:56 AM 82.0 °F 83.8 °F 64.9 °F 56% 29.82 in 10.0 mi ESE 8.1 mph - N/A   Clear
11:56 AM 84.9 °F 86.1 °F 64.0 °F 49% 29.82 in 10.0 mi Variable 4.6 mph - N/A   Clear
12:56 PM 87.1 °F 88.3 °F 64.0 °F 46% 29.83 in 10.0 mi North 4.6 mph - N/A   Clear
1:56 PM 89.1 °F 91.0 °F 64.9 °F 45% 29.82 in 10.0 mi NNE 6.9 mph - N/A   Clear
2:56 PM 91.9 °F 94.5 °F 66.0 °F 42% 29.81 in 10.0 mi ENE 11.5 mph - N/A   Clear
3:56 PM 93.9 °F 96.1 °F 64.9 °F 38% 29.80 in 10.0 mi East 10.4 mph - N/A   Clear
4:56 PM 95.0 °F 96.0 °F 63.0 °F 34% 29.79 in 10.0 mi East 9.2 mph 18.4 mph N/A   Clear
5:56 PM 93.9 °F 95.6 °F 64.0 °F 37% 29.79 in 10.0 mi East 12.7 mph - N/A   Clear
6:56 PM 93.0 °F 94.6 °F 64.0 °F 38% 29.80 in 10.0 mi East 8.1 mph - N/A   Clear
7:56 PM 89.1 °F 91.0 °F 64.9 °F 45% 29.81 in 10.0 mi East 11.5 mph - N/A   Clear
8:56 PM 84.9 °F 87.1 °F 66.0 °F 53% 29.82 in 10.0 mi East 11.5 mph - N/A   Clear
9:36 PM 82.4 °F 84.6 °F 66.2 °F 58% 29.94 in 1.0 mi East 12.7 mph - N/A   Haze
9:38 PM 82.4 °F 84.6 °F 66.2 °F 58% 29.94 in 0.5 mi East 12.7 mph - N/A   Haze
9:47 PM 82.4 °F 84.6 °F 66.2 °F 58% 29.95 in 1.0 mi East 11.5 mph - N/A   Haze
9:54 PM 80.6 °F 82.7 °F 66.2 °F 61% 29.95 in 10.0 mi East 10.4 mph - N/A   Clear
9:56 PM 81.0 °F 83.0 °F 66.0 °F 60% 29.84 in 10.0 mi East 10.4 mph - N/A   Clear
10:56 PM 79.0 °F - 66.0 °F 64% 29.86 in 10.0 mi ESE 12.7 mph - N/A   Clear